Weather History for Oshkosh, WI

Change the Weather History Date:

Monday, November 12, 2012

  Actual Average Record
Temperature  
Mean Temperature 30 °F -  
Max Temperature 33 °F 42 °F 64 °F (1964)
Min Temperature 26 °F 25 °F 8 °F (1986)
Degree Days  
Heating Degree Days 36    
Moisture  
Dew Point 18 °F    
Average Humidity 68    
Maximum Humidity 85    
Minimum Humidity 59    
Precipitation  
Precipitation 0.00 in - - ()
Sea Level Pressure  
Sea Level Pressure 30.07 in    
Wind  
Wind Speed 11 mph (West)    
Max Wind Speed 15 mph    
Max Gust Speed 26 mph    
Visibility 9 miles    
Events Snow    
Averages and records for this station are not official NWS values.
T = Trace of Precipitation, MM = Missing Value Source: NWS Daily Summary

Daily Weather History Graph

Daily Weather History Graph

Search for Another Location

Airport:

Trip Planner

Search our weather history database for the weather conditions in past years. The results will help you decide how hot, cold, wet, or windy it might be!

Date:

Astronomy

Nov. 12, 2012 Rise Set
Actual Time 6:45 AM CST 4:30 PM CST
Civil Twilight 6:14 AM CST 5:01 PM CST
Nautical Twilight 5:40 AM CST 5:36 PM CST
Astronomical Twilight 5:06 AM CST 6:10 PM CST
Moon 5:09 AM CST (11/12) 3:36 PM CST (11/12)
Length of Visible Light 10h 46m
Length of Day
9h 44m
Waning Crescent, 2% of the Moon is Illuminated
Nov 12
Waning Crescent
Nov 13
New
Nov 20
First Quarter
Nov 28
Full
Dec 6
Last Quarter

Hourly Weather History & Observations

Time (CST) Temp. Windchill Dew Point Humidity Pressure Visibility Wind Dir Wind Speed Gust Speed Precip Events Conditions
12:53 AM 33.1 °F 23.9 °F 28.9 °F 85% 29.88 in 10.0 mi West 12.7 mph 21.9 mph N/A   Overcast
1:53 AM 30.9 °F 21.2 °F 25.0 °F 79% 29.89 in 10.0 mi West 12.7 mph 20.7 mph N/A   Overcast
2:53 AM 30.0 °F 23.2 °F 23.0 °F 75% 29.94 in 10.0 mi West 6.9 mph 17.3 mph N/A   Overcast
3:53 AM 28.9 °F 21.9 °F 21.9 °F 75% 29.94 in 10.0 mi West 6.9 mph 20.7 mph N/A   Overcast
4:53 AM 28.0 °F 18.6 °F 19.0 °F 69% 29.96 in 10.0 mi West 10.4 mph 19.6 mph N/A   Overcast
5:53 AM 28.0 °F 18.6 °F 19.9 °F 72% 29.96 in 10.0 mi West 10.4 mph 17.3 mph N/A   Overcast
6:53 AM 26.1 °F 14.5 °F 17.1 °F 69% 29.99 in 10.0 mi West 13.8 mph 18.4 mph N/A   Mostly Cloudy
7:46 AM 26.6 °F 14.7 °F 15.8 °F 64% 29.97 in 10.0 mi West 15.0 mph 26.5 mph N/A   Scattered Clouds
7:53 AM 26.1 °F 15.6 °F 15.1 °F 63% 30.00 in 10.0 mi West 11.5 mph 26.5 mph N/A   Mostly Cloudy
8:53 AM 26.1 °F 15.6 °F 16.0 °F 66% 30.02 in 10.0 mi West 11.5 mph 19.6 mph N/A   Overcast
9:53 AM 26.1 °F 14.0 °F 14.0 °F 60% 30.03 in 10.0 mi WSW 15.0 mph 25.3 mph N/A   Mostly Cloudy
10:01 AM 26.6 °F 15.7 °F 14.0 °F 59% 29.99 in 10.0 mi West 12.7 mph 24.2 mph N/A   Mostly Cloudy
10:53 AM 27.0 °F 15.2 °F 15.1 °F 61% 30.04 in 10.0 mi West 15.0 mph 21.9 mph N/A   Overcast
11:53 AM 28.0 °F 18.6 °F 17.1 °F 63% 30.03 in 10.0 mi WSW 10.4 mph 19.6 mph N/A   Overcast
12:53 PM 28.0 °F 17.0 °F 16.0 °F 61% 30.03 in 10.0 mi WSW 13.8 mph 21.9 mph N/A   Overcast
1:53 PM 28.0 °F 17.5 °F 16.0 °F 61% 30.05 in 10.0 mi West 12.7 mph 20.7 mph 0.00 in   Overcast
2:53 PM 27.0 °F 16.1 °F 19.0 °F 72% 30.08 in 6.0 mi West 12.7 mph 19.6 mph 0.00 in Snow Light Snow
3:53 PM 27.0 °F 18.0 °F 16.0 °F 63% 30.11 in 10.0 mi WSW 9.2 mph - 0.00 in   Overcast
4:53 PM 27.0 °F 15.6 °F 17.1 °F 66% 30.14 in 3.0 mi WSW 13.8 mph 18.4 mph 0.00 in Snow Light Snow
4:56 PM 26.6 °F 16.8 °F 19.4 °F 74% 30.09 in 1.5 mi West 10.4 mph 18.4 mph 0.00 in Snow Light Snow
5:07 PM 26.6 °F 18.2 °F 19.4 °F 74% 30.10 in 3.0 mi WSW 8.1 mph - 0.00 in Snow Light Snow
5:23 PM 26.6 °F 16.8 °F 19.4 °F 74% 30.10 in 10.0 mi WSW 10.4 mph - 0.00 in   Overcast
5:53 PM 26.1 °F 17.6 °F 19.0 °F 75% 30.17 in 10.0 mi WSW 8.1 mph - 0.00 in   Mostly Cloudy
6:53 PM 26.1 °F 16.8 °F 16.0 °F 66% 30.20 in 10.0 mi WSW 9.2 mph 18.4 mph N/A   Mostly Cloudy
7:53 PM 26.1 °F 17.6 °F 16.0 °F 66% 30.22 in 10.0 mi WSW 8.1 mph - N/A   Overcast
8:53 PM 26.1 °F 18.4 °F 16.0 °F 66% 30.25 in 10.0 mi West 6.9 mph - N/A   Overcast
9:53 PM 26.1 °F 17.6 °F 15.1 °F 63% 30.27 in 10.0 mi West 8.1 mph - N/A   Overcast
10:53 PM 26.1 °F 16.8 °F 16.0 °F 66% 30.30 in 10.0 mi West 9.2 mph 16.1 mph 0.00 in   Overcast
11:53 PM 26.1 °F 16.2 °F 14.0 °F 60% 30.32 in 10.0 mi West 10.4 mph 20.7 mph N/A   Overcast